Regional Weather Roundup
Issued by NWS Green Bay, WI

Home | Current Version | Previous Version | Graphics & Text | Print | Product List | Glossary Off
Versions: 1 2 3 4 5 6 7 8 9 10 11 12 13 14 15 16 17 18 19 20 21 22 23 24 25 26 27 28 29 30 31 32 33 34 35 36 37 38 39 40 41 42 43 44 45 46 47 48 49 50

000
ASUS43 KGRB 201411
RWRGRB

NORTH-CENTRAL AND NORTHEAST WISCONSIN REGIONAL WEATHER ROUNDUP
NATIONAL WEATHER SERVICE GREEN BAY WI
800 AM CST MON FEB 20 2017

WIZ005-009-010>012-018-019-201500-
NORTH CENTRAL WISCONSIN

CITY           SKY/WX    TMP DP  RH WIND       PRES   REMARKS
IRONWOOD       CLOUDY    44  32  62 SE21G26   29.96F
MANITOWISH WTR CLOUDY    41  31  67 SE8G16    30.01F
ARBOR VITAE    CLOUDY    42  31  66 SE12G18   30.03S
EAGLE RIVER    CLOUDY    38  27  63 SE8       30.05F
LAND O LAKES   CLOUDY    40  28  63 SE12      30.07F
RHINELANDER    CLOUDY    39  31  72 SE10      30.06F
PHILLIPS       CLOUDY    41  33  74 SE8       29.98S
ANTIGO         CLOUDY    35  30  82 SE13      30.08F
TOMAHAWK       CLOUDY    40  30  68 SE6       30.04S
MERRILL        NOT AVBL
$$

WIZ013-073-201500-
NORTHEAST WISCONSIN

CITY           SKY/WX    TMP DP  RH WIND       PRES   REMARKS
IRON MOUNTAIN  MOSUNNY   34  28  79 SE7       30.14R
MARINETTE      CLOUDY    37  32  82 E6        30.18R
OCONTO         CLOUDY    36  32  87 E3        30.15S
$$

WIZ017-030-035>037-045-201500-
CENTRAL WISCONSIN

CITY           SKY/WX    TMP DP  RH WIND       PRES   REMARKS
MEDFORD        CLOUDY    40  33  76 SE10G20   30.00F
WAUSAU         CLOUDY    38  30  73 SE10      30.05S
MOSINEE        CLOUDY    39  30  70 E10       30.06S
MARSHFIELD     CLOUDY    40  33  76 E10       30.00F
WISC RAPIDS    CLOUDY    42  35  76 E7        30.04F
STEVENS POINT  CLOUDY    37  30  76 E7        30.07S
WAUPACA        CLOUDY    38  32  78 CALM      30.09F
SHAWANO        CLOUDY    35  32  90 NE5       30.14R
CLINTONVILLE   CLOUDY    36  32  87 NE6       30.11S
WAUTOMA        CLOUDY    36  32  85 CALM      30.07F
$$

WIZ038-039-048-051-201500-
FOX VALLEY

CITY           SKY/WX    TMP DP  RH WIND       PRES   REMARKS
NWS GREEN BAY  MOSUNNY   42  34  73 SE7       30.13F
APPLETON       PTSUNNY   39  27  60 E6        30.09R
OSHKOSH        CLOUDY    42  33  70 SE7       30.09S
FOND DU LAC    MOSUNNY   43  34  70 SE12      30.10S
$$

WIZ022-050-052-201500-
EAST CENTRAL WISCONSIN

CITY           SKY/WX    TMP DP  RH WIND       PRES   REMARKS
EPHRAIM        FAIR      37  34  88 SE9       30.16S
WASHINGTON ISL FAIR      38  32  80 SE9       30.19R
STURGEON BAY   NOT AVBL
MANITOWOC      MOSUNNY   37  34  89 MISG      30.16S
SHEBOYGAN      CLOUDY    40  32  73 SE5       30.15R
$$

LMZ563-521-522-541>543-201500-
LAKESHORE

STATION/POSITION TIME  TEMP    WIND        PRES    VSBY  WAVE
                       AIR SEA DIR/SP/G                  HT/PER
                 (UTC) (F)     (DEG/KT/KT) (MB)    (MI)  (FT/S)
SHEBOYGAN LKSHOR 1400   40     160/ 10/ 11 1021.4R
KEWAUNEE LKSHORE 1348   38      CALM  /  2 1020.8R
ALGOMA MARINA    1325             CALM       N/A
NORTHPORT PIER   1340   36     140/  6/  8 1022.4S
SISTER BAY LKSHO 1335   39     110/ 11/ 17   N/A
CHAMBERS ISLAND  1330   37      90/  4/  6 1021.3R
MENOMINEE LKSHOR 1348   34      40/  6/  7 1020.8R
$$



USA.gov is the U.S. government's official web portal to all federal, state and local government web resources and services.